Indianapolis, IN

5:37 AM EDT on August 28, 2016 (GMT -0400)
Indianapolis International

Weather History for KIND - September, 2013

Change the Weather History Date:

Saturday, September 21, 2013

  Actual Average Record
Temperature  
Mean Temperature 64 °F 65 °F  
Max Temperature 73 °F 76 °F 96 °F (2010)
Min Temperature 54 °F 54 °F 35 °F (1875)
Degree Days  
Heating Degree Days 1 3  
Month to date heating degree days 13 28  
Since 1 July heating degree days 21 32  
Cooling Degree Days 0 3  
Month to date cooling degree days 158 109  
Year to date cooling degree days 1117 1030  
Growing Degree Days 13 (Base 50)    
Moisture  
Dew Point 50 °F    
Average Humidity 64    
Maximum Humidity 93    
Minimum Humidity 35    
Precipitation  
Precipitation 0.02 in 0.11 in 1.61 in (1965)
Month to date precipitation 2.32 2.16  
Year to date precipitation 32.25 31.49  
Snow  
Snow 0.00 in 0.00 in 0.00 in ()
Month to date snowfall 0.0 0.0  
Since 1 July snowfall 0.0 0.0  
Since 1 September snowfall 0.0 0.0  
Snow Depth 0.00 in    
Sea Level Pressure  
Sea Level Pressure 29.83 in    
Wind  
Wind Speed 11 mph (NW)    
Max Wind Speed 21 mph    
Max Gust Speed 26 mph    
Visibility 10 miles    
Events Rain    
T = Trace of Precipitation, MM = Missing Value Source: NWS Daily Summary

Daily Weather History Graph

Daily Weather History Graph

Search for Another Location

Airport or City:

Trip Planner

Search our weather history database for the weather conditions in past years. The results will help you decide how hot, cold, wet, or windy it might be!

Date:

Astronomy

Sep. 21, 2013 Rise Set
Actual Time 7:32 AM EDT 7:43 PM EDT
Civil Twilight 7:05 AM EDT 8:10 PM EDT
Nautical Twilight 6:33 AM EDT 8:41 PM EDT
Astronomical Twilight 6:01 AM EDT 9:13 PM EDT
Moon 8:54 PM EDT (9/21) 9:49 AM EDT (9/21)
Length of Visible Light 13h 05m
Length of Day
12h 11m
Waning Gibbous, 94% of the Moon is Illuminated
Sep 21
Waning Gibbous
Sep 26
Last Quarter
Oct 4
New
Oct 11
First Quarter
Oct 18
Full

Hourly Weather History & Observations

Time (EDT) Temp. Dew Point Humidity Pressure Visibility Wind Dir Wind Speed Gust Speed Precip Events Conditions
12:01 AM 66.2 °F 64.4 °F 94% 29.82 in 5.0 mi West 4.6 mph - N/A Rain Rain
12:54 AM 63.0 °F 61.0 °F 93% 29.81 in 9.0 mi NNW 11.5 mph - N/A Rain Light Rain
1:02 AM 62.6 °F 60.8 °F 94% 29.82 in 10.0 mi NNW 10.4 mph - N/A Rain Light Rain
1:19 AM 62.6 °F 60.8 °F 94% 29.82 in 10.0 mi NW 8.1 mph - N/A Rain Light Rain
1:54 AM 63.0 °F 59.0 °F 87% 29.80 in 10.0 mi NW 10.4 mph - N/A Rain Light Rain
2:54 AM 60.1 °F 55.0 °F 83% 29.80 in 10.0 mi NNW 9.2 mph - N/A   Overcast
3:54 AM 59.0 °F 53.1 °F 81% 29.78 in 10.0 mi NW 8.1 mph - N/A   Overcast
4:54 AM 57.9 °F 53.1 °F 84% 29.78 in 10.0 mi NW 9.2 mph - N/A   Overcast
5:54 AM 55.9 °F 52.0 °F 87% 29.78 in 10.0 mi NW 6.9 mph - N/A   Overcast
6:54 AM 55.0 °F 52.0 °F 89% 29.79 in 10.0 mi NW 9.2 mph - N/A   Mostly Cloudy
7:54 AM 54.0 °F 51.1 °F 90% 29.81 in 10.0 mi NW 11.5 mph - N/A   Scattered Clouds
8:23 AM 53.6 °F 51.8 °F 94% 29.82 in 10.0 mi NW 9.2 mph - N/A   Scattered Clouds
8:54 AM 55.9 °F 52.0 °F 87% 29.82 in 10.0 mi NW 11.5 mph - N/A   Scattered Clouds
9:54 AM 60.1 °F 54.0 °F 80% 29.83 in 10.0 mi NW 11.5 mph - N/A   Scattered Clouds
10:54 AM 63.0 °F 55.0 °F 75% 29.84 in 10.0 mi NNW 11.5 mph - N/A   Scattered Clouds
11:54 AM 66.0 °F 54.0 °F 65% 29.84 in 10.0 mi NNW 11.5 mph 19.6 mph N/A   Scattered Clouds
12:54 PM 69.1 °F 46.9 °F 45% 29.84 in 10.0 mi NNW 16.1 mph 21.9 mph N/A   Scattered Clouds
1:54 PM 70.0 °F 44.1 °F 39% 29.83 in 10.0 mi NW 11.5 mph 26.5 mph N/A   Scattered Clouds
2:54 PM 69.1 °F 44.1 °F 40% 29.82 in 10.0 mi NNW 15.0 mph 21.9 mph N/A   Scattered Clouds
3:54 PM 70.0 °F 42.1 °F 36% 29.82 in 10.0 mi NW 11.5 mph 20.7 mph N/A   Mostly Cloudy
4:54 PM 72.0 °F 44.1 °F 37% 29.82 in 10.0 mi NW 17.3 mph - N/A   Mostly Cloudy
5:54 PM 71.1 °F 42.1 °F 35% 29.83 in 10.0 mi NW 15.0 mph - N/A   Scattered Clouds
6:54 PM 68.0 °F 43.0 °F 40% 29.84 in 10.0 mi NW 13.8 mph - N/A   Partly Cloudy
7:54 PM 63.0 °F 45.0 °F 52% 29.85 in 10.0 mi NNW 8.1 mph - N/A   Partly Cloudy
8:54 PM 60.1 °F 46.0 °F 60% 29.86 in 10.0 mi NW 5.8 mph - N/A   Partly Cloudy
9:54 PM 60.1 °F 46.0 °F 60% 29.88 in 10.0 mi North 6.9 mph - N/A   Clear
10:54 PM 57.9 °F 46.0 °F 65% 29.89 in 10.0 mi NNE 9.2 mph - N/A   Clear
11:54 PM 55.9 °F 46.0 °F 69% 29.91 in 10.0 mi North 6.9 mph - N/A   Clear